Lid_Strength_Index
8 10 12 10 10 9 10 11 11 9 8 9 10 9 8 7 7 7 7 8 6 5 3 2 2 2 2 2 2 2 2 2 1 2 2 2 2 1 2 3 3 3 1 0
10 11 9 7 7 8 8 10 11 10 8 9 10 10 8 8 8 7 7 7 6 7 5 4 3 3 2 2 2 2 2 2 1 1 2 1 2 2 3 4 3 1 0 0
11 9 6 7 8 8 9 10 11 10 9 8 9 11 10 8 7 6 6 5 5 5 5 4 4 3 3 3 2 2 2 2 1 1 1 1 2 2 4 3 4 3 1 1
9 7 6 8 8 9 11 8 9 8 11 14 9 16 12 10 10 8 6 6 5 5 4 4 4 4 3 3 2 2 2 1 1 2 2 2 3 3 4 3 3 2 1 2
9 8 8 8 8 8 10 7 9 9 11 12 11 14 13 10 10 8 7 6 5 5 4 4 4 3 3 2 2 3 2 2 2 2 2 2 3 2 3 2 1 2 2 2
9 6 8 8 7 7 7 8 10 11 11 15 12 13 14 12 10 8 7 6 5 5 4 4 3 3 3 2 2 2 3 2 2 1 1 2 3 2 2 2 2 2 2 2
9 9 8 6 9 8 9 11 15 15 17 16 11 13 13 9 8 7 7 6 5 5 4 4 4 4 3 3 2 2 2 3 2 2 1 2 2 2 2 2 2 3 3 3
11 12 8 7 9 10 10 11 14 18 18 16 11 16 13 9 6 6 5 6 6 5 4 4 4 4 3 3 3 2 2 2 2 1 2 1 1 2 2 2 2 2 3 2
12 11 7 6 7 8 9 11 10 13 13 15 14 12 9 8 7 6 6 6 6 6 5 4 4 3 3 3 3 2 2 2 2 2 1 1 1 1 2 2 2 1 1 1
9 12 7 6 7 8 9 8 12 13 17 18 16 15 15 11 10 7 7 7 6 6 5 5 4 4 4 3 2 2 2 2 2 2 2 1 1 2 2 1 3 2 1 1
8 11 10 8 10 11 11 11 11 11 13 17 18 16 10 10 8 8 7 7 6 6 5 5 5 4 3 3 3 3 3 2 2 2 1 2 2 1 2 2 3 1 1 1
8 11 13 11 8 7 8 10 11 14 14 13 14 15 8 8 7 7 7 6 6 5 5 5 5 4 4 3 3 3 3 3 2 2 1 2 1 1 2 3 2 1 2 1
8 11 14 12 11 8 10 9 10 10 11 14 16 15 7 7 7 7 7 6 6 5 5 4 3 3 3 3 3 3 2 2 2 2 2 2 2 2 2 2 2 2 1 1
7 11 12 15 12 10 11 9 9 11 14 13 13 12 10 9 8 7 6 5 5 5 5 5 4 5 3 3 3 3 2 2 2 2 2 3 2 2 2 2 2 2 1 1
9 13 10 10 8 8 9 9 9 11 11 13 11 12 11 9 8 7 6 5 6 5 6 5 5 6 5 4 3 2 2 2 2 2 2 2 3 2 1 1 2 2 2 3
8 12 11 12 9 8 9 9 9 9 9 10 10 11 7 6 6 6 6 6 6 6 6 5 5 4 4 4 3 2 2 2 2 2 2 2 2 1 1 1 1 2 2 4
10 12 13 14 10 10 13 10 9 9 9 9 13 10 8 8 7 7 7 7 7 6 6 6 5 4 4 4 3 4 3 2 2 2 2 2 2 2 2 2 3 2 3 5
10 11 12 14 12 17 11 8 7 9 9 8 8 8 8 8 8 8 7 8 7 6 5 5 5 4 4 4 3 2 2 2 2 2 2 2 2 2 2 2 4 4 5 6
8 11 14 15 15 12 10 9 9 10 11 7 8 8 8 8 8 8 6 6 6 5 4 4 3 4 4 3 3 2 2 2 2 2 2 2 2 2 2 2 2 2 4 5
8 9 12 13 16 18 12 7 6 7 14 8 9 9 9 9 12 10 6 5 4 3 4 3 3 3 3 4 2 3 3 3 3 2 2 3 2 2 3 3 3 3 3 4
12 12 14 14 15 13 8 6 6 14 14 8 8 8 8 9 8 7 5 5 4 3 3 3 3 3 3 2 2 3 4 3 2 3 4 4 5 4 5 5 5 5 5 7
12 13 14 13 15 17 6 7 11 9 8 8 8 7 8 7 6 6 5 4 4 4 3 2 3 4 3 2 2 3 3 2 3 4 5 6 7 6 7 8 8 8 7 8
13 11 13 12 12 8 6 7 7 7 8 8 8 7 7 7 6 6 5 5 3 3 3 3 3 3 3 2 3 3 2 3 5 6 7 7 7 8 8 9 10 11 8 6
9 8 10 10 8 8 7 6 7 7 7 6 7 7 6 7 6 5 4 4 4 4 3 3 4 4 3 3 2 2 3 4 6 7 7 8 9 10 10 9 10 10 10 8
8 8 9 10 8 8 7 7 7 6 6 6 6 6 6 5 4 4 5 5 4 5 4 4 4 4 4 3 2 1 2 4 6 7 7 8 8 8 9 10 10 9 10 10
7 9 11 12 8 9 8 7 6 6 6 6 6 6 4 4 5 5 5 5 5 6 5 4 4 4 4 2 2 1 3 4 6 6 6 7 6 6 8 9 10 10 10 10